| time (UTC) | temp C | wind direction | speed KPH | gust KPH | rain 1hr cm | rain 24hr cm | rain mn cm | humidity % | barometer mb |
| 20260503212447 | 10 | 197 | 0.0 | 0.0 | 0.00 | 0.41 | 0.41 | 91 | 4089.1 |
| 20260503211944 | 10 | 197 | 1.6 | 1.6 | 0.00 | 0.41 | 0.41 | 91 | 4089.4 |
| 20260503211441 | 9 | 198 | 0.0 | 0.0 | 0.00 | 0.41 | 0.41 | 90 | 4089.1 |
| 20260503210936 | 11 | 164 | 1.6 | 3.2 | 0.00 | 0.41 | 0.41 | 89 | 4089.4 |
| 20260503210433 | 11 | 160 | 4.8 | 4.8 | 0.00 | 0.41 | 0.41 | 81 | 4089.1 |
| 20260503205928 | 10 | 162 | 4.8 | 4.8 | 0.00 | 0.41 | 0.41 | 86 | 4089.1 |
| 20260503205425 | 10 | 155 | 4.8 | 4.8 | 0.00 | 0.41 | 0.41 | 90 | 4089.4 |
| 20260503204921 | 10 | 172 | 9.7 | 11.3 | 0.00 | 0.41 | 0.41 | 87 | 4089.8 |
| 20260503204419 | 10 | 195 | 1.6 | 1.6 | 0.00 | 0.41 | 0.41 | 89 | 4089.8 |
| 20260503203916 | 10 | 195 | 3.2 | 3.2 | 0.00 | 0.41 | 0.41 | 88 | 4089.8 |
| 20260503203413 | 10 | 166 | 1.6 | 3.2 | 0.00 | 0.41 | 0.41 | 91 | 4089.8 |
| 20260503202910 | 8 | 212 | 3.2 | 3.2 | 0.00 | 0.41 | 0.41 | 92 | 4089.8 |
| 20260503202408 | 9 | 198 | 1.6 | 1.6 | 0.00 | 0.41 | 0.41 | 90 | 4089.8 |
| 20260503201906 | 8 | 198 | 1.6 | 3.2 | 0.00 | 0.41 | 0.41 | 92 | 4090.1 |
| 20260503201403 | 8 | 173 | 3.2 | 3.2 | 0.00 | 0.41 | 0.41 | 92 | 4090.1 |
| 20260503200901 | 8 | 162 | 3.2 | 3.2 | 0.00 | 0.41 | 0.41 | 90 | 4090.1 |
| 20260503200356 | 7 | 162 | 3.2 | 3.2 | 0.00 | 0.41 | 0.41 | 96 | 4090.1 |
| 20260503195854 | 6 | 159 | 0.0 | 0.0 | 0.00 | 0.41 | 0.41 | 99 | 4090.5 |
| 20260503195350 | 6 | 160 | 3.2 | 3.2 | 0.00 | 0.41 | 0.41 | 98 | 4090.5 |
| 20260503194847 | 6 | 155 | 4.8 | 4.8 | 0.00 | 0.41 | 0.41 | 97 | 4090.5 |
| 20260503194343 | 6 | 152 | 6.4 | 8.0 | 0.00 | 0.41 | 0.41 | 98 | 4090.8 |
| 20260503193840 | 6 | 158 | 4.8 | 4.8 | 0.00 | 0.41 | 0.41 | 99 | 4090.8 |
| 20260503193336 | 7 | 168 | 9.7 | 9.7 | 0.00 | 0.41 | 0.41 | 97 | 4090.8 |
| 20260503192832 | 8 | 157 | 9.7 | 11.3 | 0.00 | 0.41 | 0.41 | 92 | 4090.8 |
| 20260503192327 | 8 | 216 | 4.8 | 4.8 | 0.00 | 0.41 | 0.41 | 94 | 4091.1 |
| 20260503191824 | 7 | 180 | 1.6 | 1.6 | 0.00 | 0.41 | 0.41 | 97 | 4090.8 |
| 20260503191321 | 8 | 173 | 4.8 | 4.8 | 0.00 | 0.41 | 0.41 | 95 | 4091.1 |
| 20260503190818 | 10 | 153 | 8.0 | 9.7 | 0.00 | 0.41 | 0.41 | 91 | 4091.1 |
| 20260503190315 | 10 | 235 | 3.2 | 4.8 | 0.00 | 0.41 | 0.41 | 95 | 4091.5 |
| 20260503185812 | 8 | 235 | 0.0 | 0.0 | 0.00 | 0.41 | 0.41 | 96 | 4091.5 |
| 20260503185307 | 7 | 235 | 1.6 | 3.2 | 0.00 | 0.41 | 0.41 | 96 | 4091.5 |
| 20260503184802 | 9 | 219 | 1.6 | 4.8 | 0.00 | 0.41 | 0.41 | 93 | 4091.5 |
| 20260503184258 | 10 | 201 | 1.6 | 1.6 | 0.00 | 0.41 | 0.41 | 92 | 4091.5 |
| 20260503183754 | 10 | 158 | 1.6 | 1.6 | 0.00 | 0.41 | 0.41 | 90 | 4091.5 |
| 20260503183252 | 10 | 159 | 1.6 | 1.6 | 0.00 | 0.41 | 0.41 | 91 | 4091.8 |
| 20260503182749 | 10 | 185 | 3.2 | 3.2 | 0.00 | 0.41 | 0.41 | 94 | 4091.8 |
| 20260503182248 | 10 | 181 | 4.8 | 4.8 | 0.00 | 0.41 | 0.41 | 92 | 4091.5 |
| 20260503181744 | 9 | 158 | 0.0 | 0.0 | 0.00 | 0.41 | 0.41 | 94 | 4091.5 |
| 20260503181242 | 8 | 145 | 0.0 | 1.6 | 0.00 | 0.41 | 0.41 | 95 | 4091.8 |
| 20260503180738 | 8 | 154 | 0.0 | 1.6 | 0.00 | 0.41 | 0.41 | 94 | 4091.8 |
| 20260503180236 | 9 | 153 | 1.6 | 1.6 | 0.00 | 0.41 | 0.41 | 93 | 4091.8 |
| 20260503175732 | 8 | 153 | 0.0 | 1.6 | 0.00 | 0.41 | 0.41 | 94 | 4091.8 |
| 20260503175231 | 8 | 153 | 1.6 | 3.2 | 0.00 | 0.41 | 0.41 | 94 | 4092.1 |
| 20260503174726 | 8 | 154 | 1.6 | 3.2 | 0.00 | 0.41 | 0.41 | 94 | 4091.8 |
| 20260503174224 | 7 | 154 | 3.2 | 3.2 | 0.00 | 0.41 | 0.41 | 96 | 4092.1 |
| 20260503173719 | 7 | 154 | 4.8 | 4.8 | 0.00 | 0.41 | 0.41 | 97 | 4092.1 |
| 20260503173215 | 7 | 151 | 4.8 | 4.8 | 0.00 | 0.41 | 0.41 | 96 | 4092.1 |
| 20260503172712 | 7 | 139 | 6.4 | 8.0 | 0.00 | 0.41 | 0.41 | 98 | 4092.1 |
| 20260503172209 | 7 | 149 | 4.8 | 4.8 | 0.00 | 0.41 | 0.41 | 97 | 4092.1 |
| 20260503171706 | 6 | 135 | 4.8 | 8.0 | 0.00 | 0.41 | 0.41 | 99 | 4092.5 |
| 20260503171203 | 6 | 139 | 4.8 | 4.8 | 0.00 | 0.41 | 0.41 | 99 | 4092.8 |
| 20260503170700 | 5 | 144 | 4.8 | 4.8 | 0.00 | 0.41 | 0.41 | 99 | 4092.5 |
| 20260503170157 | 5 | 142 | 6.4 | 8.0 | 0.00 | 0.41 | 0.41 | 99 | 4092.5 |
| 20260503160118 | 3 | 138 | 4.8 | 4.8 | 0.00 | 0.41 | 0.41 | 99 | 4093.2 |
| 20260503150543 | 2 | 153 | 0.0 | 0.0 | 0.05 | 0.30 | 0.30 | 99 | 4093.8 |
| 20260503130932 | 3 | 137 | 0.0 | 0.0 | 0.00 | 0.00 | 0.00 | 86 | 4094.5 |
| 20260503130431 | 3 | 137 | 0.0 | 0.0 | 0.00 | 0.00 | 0.00 | 82 | 4094.2 |
| 20260503110823 | 3 | 180 | 9.7 | 9.7 | 0.00 | 0.00 | 0.00 | 86 | 4094.5 |
| 20260503110320 | 3 | 168 | 8.0 | 9.7 | 0.00 | 0.00 | 0.00 | 90 | 4094.9 |
| 20260503100246 | 0 | 144 | 0.0 | 0.0 | 0.00 | 0.00 | 0.00 | 93 | 4095.2 |
| 20260503090206 | 2 | 139 | 1.6 | 1.6 | 0.00 | 0.00 | 0.00 | 91 | 4095.9 |
| 20260503081636 | 0 | 294 | 1.6 | 3.2 | 0.00 | 0.00 | 0.00 | 91 | 4096.5 |
| 20260503081132 | 0 | 298 | 0.0 | 0.0 | 0.00 | 0.00 | 0.00 | 93 | 4096.5 |
| 20260503080628 | 0 | 299 | 0.0 | 0.0 | 0.00 | 0.00 | 0.00 | 94 | 4097.0 |
| 20260503080126 | 0 | 300 | 0.0 | 0.0 | 0.00 | 0.00 | 0.00 | 94 | 4097.0 |
| 20260503072602 | 0 | 300 | 0.0 | 0.0 | 0.00 | 0.00 | 0.00 | 99 | 4097.3 |
| 20260503072100 | 0 | 300 | 0.0 | 0.0 | 0.00 | 0.00 | 0.00 | 99 | 4097.7 |
| 20260503071556 | 0 | 300 | 0.0 | 0.0 | 0.00 | 0.00 | 0.00 | 99 | 4097.3 |
| 20260503071053 | 0 | 300 | 0.0 | 0.0 | 0.00 | 0.00 | 0.00 | 99 | 4097.7 |
| 20260503070549 | 0 | 300 | 0.0 | 0.0 | 0.00 | 0.00 | 0.00 | 99 | 4097.7 |
| 20260503055003 | 0 | 301 | 1.6 | 1.6 | 0.00 | 0.00 | 0.00 | 99 | 4098.7 |
| 20260503054459 | 0 | 301 | 1.6 | 1.6 | 0.00 | 0.00 | 0.00 | 99 | 4098.7 |
| 20260503053957 | 0 | 301 | 0.0 | 1.6 | 0.00 | 0.00 | 0.00 | 99 | 4098.7 |
| 20260503053455 | 0 | 301 | 0.0 | 0.0 | 0.00 | 0.00 | 0.00 | 99 | 4098.7 |
| 20260503052951 | 0 | 301 | 1.6 | 1.6 | 0.00 | 0.00 | 0.00 | 99 | 4098.7 |
| 20260503052449 | 0 | 301 | 0.0 | 0.0 | 0.00 | 0.00 | 0.00 | 99 | 4098.7 |
| 20260503051945 | 0 | 301 | 1.6 | 1.6 | 0.00 | 0.00 | 0.00 | 98 | 4098.7 |
| 20260503051441 | 0 | 301 | 0.0 | 1.6 | 0.00 | 0.00 | 0.00 | 98 | 4099.0 |
| 20260503050938 | 0 | 301 | 0.0 | 0.0 | 0.00 | 0.00 | 0.00 | 98 | 4099.0 |
| 20260503050433 | 0 | 301 | 0.0 | 0.0 | 0.00 | 0.00 | 0.00 | 97 | 4099.0 |
| 20260503045932 | 0 | 301 | 1.6 | 1.6 | 0.00 | 0.00 | 0.00 | 97 | 4099.0 |
| 20260503045429 | 0 | 301 | 0.0 | 0.0 | 0.00 | 0.00 | 0.00 | 97 | 4099.0 |
| 20260503044926 | 0 | 301 | 0.0 | 0.0 | 0.00 | 0.00 | 0.00 | 96 | 4099.0 |
| 20260503044422 | 0 | 301 | 0.0 | 0.0 | 0.00 | 0.00 | 0.00 | 96 | 4099.0 |
| 20260503043920 | 0 | 301 | 0.0 | 0.0 | 0.00 | 0.00 | 0.00 | 96 | 4099.4 |
| 20260503043416 | 0 | 301 | 0.0 | 0.0 | 0.00 | 0.00 | 0.00 | 96 | 4099.0 |
| 20260503042913 | 0 | 301 | 0.0 | 0.0 | 0.00 | 0.00 | 0.00 | 96 | 4099.0 |
| 20260503042410 | 0 | 301 | 0.0 | 0.0 | 0.00 | 0.00 | 0.00 | 96 | 4099.4 |
| 20260503041906 | 0 | 301 | 0.0 | 0.0 | 0.00 | 0.00 | 0.00 | 95 | 4099.4 |
| 20260503041403 | 1 | 301 | 0.0 | 0.0 | 0.00 | 0.00 | 0.00 | 96 | 4099.4 |
| 20260503040900 | 0 | 301 | 0.0 | 0.0 | 0.00 | 0.00 | 0.00 | 96 | 4099.4 |
| 20260503040358 | 0 | 301 | 0.0 | 0.0 | 0.00 | 0.00 | 0.00 | 95 | 4099.0 |
| 20260503035854 | 0 | 301 | 0.0 | 0.0 | 0.00 | 0.00 | 0.00 | 95 | 4099.4 |
| 20260503035351 | 0 | 301 | 0.0 | 0.0 | 0.00 | 0.00 | 0.00 | 95 | 4099.4 |
| 20260503034849 | 0 | 301 | 0.0 | 0.0 | 0.00 | 0.00 | 0.00 | 95 | 4099.4 |
| 20260503034346 | 1 | 301 | 0.0 | 0.0 | 0.00 | 0.00 | 0.00 | 95 | 4099.7 |
| 20260503033843 | 1 | 301 | 0.0 | 0.0 | 0.00 | 0.00 | 0.00 | 94 | 4099.7 |
| 20260503033341 | 1 | 301 | 0.0 | 0.0 | 0.00 | 0.00 | 0.00 | 94 | 4099.7 |
| 20260503032838 | 1 | 300 | 0.0 | 0.0 | 0.00 | 0.00 | 0.00 | 94 | 4099.7 |
| 20260503032337 | 1 | 301 | 0.0 | 0.0 | 0.00 | 0.00 | 0.00 | 93 | 4099.7 |
| 20260503031834 | 1 | 301 | 0.0 | 0.0 | 0.00 | 0.00 | 0.00 | 92 | 4099.7 |
| 20260503031332 | 1 | 301 | 0.0 | 0.0 | 0.00 | 0.00 | 0.00 | 92 | 4100.0 |
| 20260503030828 | 1 | 301 | 0.0 | 0.0 | 0.00 | 0.00 | 0.00 | 93 | 4100.0 |
| 20260503030325 | 1 | 300 | 0.0 | 0.0 | 0.00 | 0.00 | 0.00 | 92 | 4100.0 |
| 20260503025821 | 2 | 301 | 0.0 | 0.0 | 0.00 | 0.00 | 0.00 | 92 | 4100.0 |
| 20260503025319 | 2 | 301 | 0.0 | 0.0 | 0.00 | 0.00 | 0.00 | 92 | 4100.0 |
| 20260503024816 | 2 | 301 | 0.0 | 0.0 | 0.00 | 0.00 | 0.00 | 92 | 4100.0 |
| 20260503024312 | 2 | 301 | 0.0 | 0.0 | 0.00 | 0.00 | 0.00 | 92 | 4100.0 |
| 20260503023809 | 2 | 300 | 0.0 | 0.0 | 0.00 | 0.00 | 0.00 | 91 | 4100.4 |
| 20260503023306 | 2 | 300 | 0.0 | 0.0 | 0.00 | 0.00 | 0.00 | 91 | 4100.4 |
| 20260503022802 | 2 | 301 | 1.6 | 1.6 | 0.00 | 0.00 | 0.00 | 90 | 4100.4 |
| 20260503022257 | 2 | 300 | 1.6 | 3.2 | 0.00 | 0.00 | 0.00 | 90 | 4100.4 |
| 20260503021754 | 2 | 300 | 1.6 | 1.6 | 0.00 | 0.00 | 0.00 | 89 | 4100.4 |
| 20260503021250 | 2 | 300 | 1.6 | 1.6 | 0.00 | 0.00 | 0.00 | 89 | 4100.4 |
| 20260503020748 | 2 | 300 | 0.0 | 0.0 | 0.00 | 0.00 | 0.00 | 89 | 4100.4 |
| 20260503020246 | 2 | 300 | 0.0 | 1.6 | 0.00 | 0.00 | 0.00 | 88 | 4100.4 |
| 20260503015741 | 3 | 300 | 1.6 | 1.6 | 0.00 | 0.00 | 0.00 | 87 | 4100.0 |
| 20260503015238 | 3 | 300 | 0.0 | 0.0 | 0.00 | 0.00 | 0.00 | 86 | 4100.4 |
| 20260503014734 | 3 | 300 | 1.6 | 1.6 | 0.00 | 0.00 | 0.00 | 86 | 4100.0 |
| 20260503014233 | 3 | 300 | 0.0 | 0.0 | 0.00 | 0.00 | 0.00 | 86 | 4100.4 |
| 20260503013729 | 3 | 300 | 0.0 | 0.0 | 0.00 | 0.00 | 0.00 | 86 | 4100.4 |
| 20260503013227 | 3 | 300 | 1.6 | 1.6 | 0.00 | 0.00 | 0.00 | 86 | 4100.0 |
| 20260503012724 | 3 | 300 | 0.0 | 0.0 | 0.00 | 0.00 | 0.00 | 85 | 4100.0 |
| 20260503012221 | 3 | 300 | 0.0 | 1.6 | 0.00 | 0.00 | 0.00 | 85 | 4100.0 |
| 20260503011718 | 3 | 291 | 1.6 | 1.6 | 0.00 | 0.00 | 0.00 | 85 | 4100.0 |
| 20260503011215 | 3 | 291 | 1.6 | 1.6 | 0.00 | 0.00 | 0.00 | 85 | 4100.0 |
| 20260503010711 | 3 | 291 | 0.0 | 0.0 | 0.00 | 0.00 | 0.00 | 85 | 4100.0 |
| 20260503010208 | 3 | 291 | 1.6 | 1.6 | 0.00 | 0.00 | 0.00 | 84 | 4100.0 |
| 20260503005706 | 4 | 291 | 0.0 | 0.0 | 0.00 | 0.00 | 0.00 | 83 | 4099.7 |
| 20260503005203 | 4 | 291 | 1.6 | 1.6 | 0.00 | 0.00 | 0.00 | 83 | 4099.7 |
| 20260503004658 | 5 | 289 | 1.6 | 1.6 | 0.00 | 0.00 | 0.00 | 83 | 4100.0 |
| 20260503004157 | 5 | 289 | 0.0 | 0.0 | 0.00 | 0.00 | 0.00 | 83 | 4100.0 |
| 20260503003654 | 5 | 289 | 0.0 | 0.0 | 0.00 | 0.00 | 0.00 | 82 | 4099.7 |
| 20260503003151 | 5 | 289 | 1.6 | 3.2 | 0.00 | 0.00 | 0.00 | 81 | 4100.0 |
| 20260503002647 | 5 | 289 | 0.0 | 0.0 | 0.00 | 0.00 | 0.00 | 80 | 4099.7 |
| 20260503002144 | 5 | 288 | 0.0 | 0.0 | 0.00 | 0.00 | 0.00 | 78 | 4099.7 |
| 20260503001640 | 6 | 289 | 0.0 | 1.6 | 0.00 | 0.00 | 0.00 | 79 | 4099.7 |
| 20260503001137 | 6 | 287 | 0.0 | 0.0 | 0.00 | 0.00 | 0.00 | 76 | 4100.0 |
| 20260503000635 | 6 | 287 | 0.0 | 0.0 | 0.00 | 0.00 | 0.00 | 75 | 4099.7 |
| 20260503000132 | 6 | 286 | 1.6 | 1.6 | 0.00 | 0.00 | 0.00 | 74 | 4099.7 |
| 20260502235629 | 6 | 279 | 1.6 | 3.2 | 0.00 | 0.00 | 0.00 | 72 | 4099.7 |
| 20260502235127 | 6 | 273 | 3.2 | 3.2 | 0.00 | 0.00 | 0.00 | 70 | 4100.0 |
| 20260502234622 | 7 | 264 | 3.2 | 3.2 | 0.00 | 0.00 | 0.00 | 68 | 4100.0 |
| 20260502234120 | 7 | 240 | 0.0 | 0.0 | 0.00 | 0.00 | 0.00 | 66 | 4099.7 |
| 20260502233616 | 6 | 242 | 1.6 | 1.6 | 0.00 | 0.00 | 0.00 | 68 | 4099.7 |
| 20260502233113 | 6 | 248 | 0.0 | 0.0 | 0.00 | 0.00 | 0.00 | 72 | 4100.0 |
| 20260502232608 | 6 | 240 | 0.0 | 0.0 | 0.00 | 0.00 | 0.00 | 73 | 4099.7 |
| 20260502232106 | 7 | 242 | 4.8 | 4.8 | 0.00 | 0.00 | 0.00 | 74 | 4100.0 |
| 20260502231603 | 8 | 269 | 0.0 | 0.0 | 0.00 | 0.00 | 0.00 | 60 | 4100.0 |
| 20260502231101 | 8 | 269 | 0.0 | 0.0 | 0.00 | 0.00 | 0.00 | 60 | 4100.0 |
| 20260502230559 | 8 | 269 | 0.0 | 0.0 | 0.00 | 0.00 | 0.00 | 65 | 4100.0 |
| 20260502230057 | 8 | 270 | 0.0 | 0.0 | 0.00 | 0.00 | 0.00 | 66 | 4100.0 |
| 20260502225552 | 8 | 270 | 0.0 | 0.0 | 0.00 | 0.00 | 0.00 | 66 | 4100.4 |
| 20260502225050 | 8 | 270 | 0.0 | 0.0 | 0.00 | 0.00 | 0.00 | 67 | 4100.4 |
| 20260502224545 | 8 | 268 | 0.0 | 0.0 | 0.00 | 0.00 | 0.00 | 66 | 4100.4 |
| 20260502224043 | 10 | 268 | 0.0 | 1.6 | 0.00 | 0.00 | 0.00 | 64 | 4100.4 |
| 20260502223540 | 10 | 261 | 0.0 | 0.0 | 0.00 | 0.00 | 0.00 | 64 | 4100.4 |
| 20260502223039 | 10 | 262 | 0.0 | 1.6 | 0.00 | 0.00 | 0.00 | 65 | 4100.4 |
| 20260502222536 | 9 | 260 | 0.0 | 0.0 | 0.00 | 0.00 | 0.00 | 62 | 4100.4 |
| 20260502222032 | 10 | 253 | 0.0 | 1.6 | 0.00 | 0.00 | 0.00 | 64 | 4100.4 |
| 20260502221527 | 10 | 253 | 0.0 | 1.6 | 0.00 | 0.00 | 0.00 | 64 | 4100.4 |
| 20260502221025 | 9 | 253 | 0.0 | 0.0 | 0.00 | 0.00 | 0.00 | 64 | 4100.4 |
| 20260502220521 | 9 | 253 | 0.0 | 0.0 | 0.00 | 0.00 | 0.00 | 66 | 4100.4 |
| 20260502220018 | 9 | 253 | 0.0 | 0.0 | 0.00 | 0.00 | 0.00 | 63 | 4100.4 |
| 20260502215515 | 10 | 249 | 1.6 | 1.6 | 0.00 | 0.00 | 0.00 | 63 | 4100.4 |
| 20260502215012 | 10 | 243 | 0.0 | 1.6 | 0.00 | 0.00 | 0.00 | 65 | 4100.7 |
| 20260502214509 | 10 | 243 | 1.6 | 1.6 | 0.00 | 0.00 | 0.00 | 67 | 4100.4 |
| 20260502214007 | 10 | 241 | 1.6 | 3.2 | 0.00 | 0.00 | 0.00 | 64 | 4100.4 |
| 20260502213503 | 10 | 238 | 1.6 | 1.6 | 0.00 | 0.00 | 0.00 | 58 | 4100.4 |
| 20260502213001 | 11 | 203 | 0.0 | 1.6 | 0.00 | 0.00 | 0.00 | 59 | 4100.7 |